Location: Canyon Rim
(40.8777°N, 111.8641°W)
Time: 08:11:19
(UTC+00:00)

X-37B - Pass Details

Date: 21 April 2021
Orbit: 386 x 389 km, 45.0° (Epoch: 08 May)

Event Time Altitude Azimuth Distance (km) Brightness Sun altitude
Exits shadow 11:14:43 19° 299° (WNW) 1,009 2.4 -15.4°
Maximum altitude 11:16:35 37° 358° (N) 625 1.8 -15.1°
Drops below altitude 10° 11:19:34 10° 68° (ENE) 1,413 4.8 -14.6°
Sets 11:21:44 0° 77° (ENE) 2,267 6.0 -14.2°
